YU0XSU-13 Weather Reports


Display with metric or nautical units.
time (UTC)temp
F
wind
direction
speed
MPH
gust
MPH
rain 1hr
in
rain 24hr
in
rain mn
in
humidity
%
barometer
mb
20260906001837 64 0 0.0 0.0 0.00 0.00 0.00 69 1019.9
20260906000817 64 0 0.0 0.0 0.00 0.00 0.00 68 1019.8
20260905235817 64 0 0.0 0.0 0.00 0.00 0.00 68 1019.9
20260905234747 64 0 0.0 0.0 0.00 0.00 0.00 68 1019.8
20260905233737 64 0 0.0 0.0 0.00 0.00 0.00 68 1019.6
20260905232737 64 0 0.0 0.0 0.00 0.00 0.00 67 1019.8
20260905231739 64 0 0.0 0.0 0.00 0.00 0.00 67 1019.7
20260905230715 64 0 0.0 0.0 0.00 0.00 0.00 67 1019.4
20260905225707 64 0 0.0 0.0 0.00 0.00 0.00 67 1019.4
20260905224647 64 0 0.0 0.0 0.00 0.00 0.00 66 1019.4
20260905223645 65 0 0.0 0.0 0.00 0.00 0.00 65 1019.4
20260905222635 65 0 0.0 0.0 0.00 0.00 0.00 66 1019.4
20260905221615 65 0 0.0 0.0 0.00 0.00 0.00 65 1019.3
20260905220615 65 0 0.0 0.0 0.00 0.00 0.00 66 1019.3
20260905215615 64 0 0.0 0.0 0.00 0.00 0.00 67 1019.2
20260905214605 64 0 0.0 0.0 0.00 0.00 0.00 68 1019.0
20260905213545 65 0 0.0 0.0 0.00 0.00 0.00 67 1019.1
20260905212515 65 0 0.0 0.0 0.00 0.00 0.00 67 1019.1
20260905211507 65 0 0.0 0.0 0.00 0.00 0.00 67 1019.0
20260905210445 66 0 0.0 0.0 0.00 0.00 0.00 65 1018.9
20260905205447 66 0 0.0 0.0 0.00 0.00 0.00 65 1018.8
20260905204427 65 0 0.0 0.0 0.00 0.00 0.00 67 1018.7
20260905203405 65 0 0.0 0.0 0.00 0.00 0.00 67 1018.5
20260905202347 65 0 0.0 0.0 0.00 0.00 0.00 65 1018.4
20260905201315 66 0 0.0 0.0 0.00 0.00 0.00 64 1018.2
20260905200247 68 0 0.0 0.0 0.00 0.00 0.00 61 1018.1
20260905195247 67 0 0.0 0.0 0.00 0.00 0.00 63 1017.9
20260905194247 68 0 0.0 0.0 0.00 0.00 0.00 61 1017.8
20260905193217 68 0 0.0 0.0 0.00 0.00 0.00 60 1017.6
20260905192149 68 0 0.0 0.0 0.00 0.00 0.00 60 1017.6
20260905191147 68 0 0.0 0.0 0.00 0.00 0.00 61 1017.5
20260905190117 68 0 0.0 0.0 0.00 0.00 0.00 61 1017.4
20260905185047 69 0 0.0 0.0 0.00 0.00 0.00 62 1017.2
20260905184047 69 0 0.0 0.0 0.00 0.00 0.00 60 1017.1
20260905183045 69 0 0.0 0.0 0.00 0.00 0.00 62 1016.9
20260905182037 69 0 0.0 0.0 0.00 0.00 0.00 60 1016.7
20260905181015 69 0 0.0 0.0 0.00 0.00 0.00 60 1016.8
20260905175947 71 0 0.0 0.0 0.00 0.00 0.00 48 1016.8
20260905174925 73 0 0.0 0.0 0.00 0.00 0.00 46 1016.7
20260905173917 75 0 0.0 0.0 0.00 0.00 0.00 39 1016.3
20260905172845 76 0 0.0 0.0 0.00 0.00 0.00 35 1016.1
20260905171837 76 0 0.0 0.0 0.00 0.00 0.00 35 1016.2
20260905170819 76 0 0.0 0.0 0.00 0.00 0.00 35 1016.2
20260905165815 77 0 0.0 0.0 0.00 0.00 0.00 34 1016.3
20260905164745 77 0 0.0 0.0 0.00 0.00 0.00 34 1016.1
20260905163737 77 0 0.0 0.0 0.00 0.00 0.00 33 1016.0
20260905162735 77 0 0.0 0.0 0.00 0.00 0.00 32 1015.8
20260905161713 78 0 0.0 0.0 0.00 0.00 0.00 31 1016.0
20260905160645 80 0 0.0 0.0 0.00 0.00 0.00 29 1016.1
20260905155637 80 0 0.0 0.0 0.00 0.00 0.00 29 1016.1
20260905154635 80 0 0.0 0.0 0.00 0.00 0.00 27 1016.1
20260905153607 81 0 0.0 0.0 0.00 0.00 0.00 27 1016.0
20260905152545 81 0 0.0 0.0 0.00 0.00 0.00 27 1015.8
20260905151537 82 0 0.0 0.0 0.00 0.00 0.00 26 1015.7
20260905150517 83 0 0.0 0.0 0.00 0.00 0.00 26 1015.7
20260905145447 83 0 0.0 0.0 0.00 0.00 0.00 26 1015.6
20260905144433 84 0 0.0 0.0 0.00 0.00 0.00 26 1015.6
20260905143406 84 0 0.0 0.0 0.00 0.00 0.00 26 1015.6
20260905142347 85 0 0.0 0.0 0.00 0.00 0.00 26 1015.4
20260905141325 86 0 0.0 0.0 0.00 0.00 0.00 25 1015.4
20260905140311 88 0 0.0 0.0 0.00 0.00 0.00 24 1015.3
20260905135309 90 0 0.0 0.0 0.00 0.00 0.00 22 1015.3
20260905134245 93 0 0.0 0.0 0.00 0.00 0.00 20 1015.3
20260905133233 92 0 0.0 0.0 0.00 0.00 0.00 20 1015.2
20260905132207 92 0 0.0 0.0 0.00 0.00 0.00 20 1015.2
20260905131147 94 0 0.0 0.0 0.00 0.00 0.00 19 1015.0
20260905130141 91 0 0.0 0.0 0.00 0.00 0.00 21 1015.0
20260905125117 91 0 0.0 0.0 0.00 0.00 0.00 20 1015.1
20260905124049 97 0 0.0 0.0 0.00 0.00 0.00 18 1015.0
20260905123047 94 0 0.0 0.0 0.00 0.00 0.00 20 1015.1
20260905122047 96 0 0.0 0.0 0.00 0.00 0.00 19 1015.1
20260905121047 97 0 0.0 0.0 0.00 0.00 0.00 20 1015.0
20260905120045 98 0 0.0 0.0 0.00 0.00 0.00 21 1015.0
20260905115017 99 0 0.0 0.0 0.00 0.00 0.00 21 1015.1
20260905114003 97 0 0.0 0.0 0.00 0.00 0.00 22 1014.9
20260905112947 95 0 0.0 0.0 0.00 0.00 0.00 25 1015.0
20260905111947 94 0 0.0 0.0 0.00 0.00 0.00 26 1014.8
20260905110945 96 0 0.0 0.0 0.00 0.00 0.00 24 1014.7
20260905105923 93 0 0.0 0.0 0.00 0.00 0.00 26 1014.8
20260905104919 93 0 0.0 0.0 0.00 0.00 0.00 26 1014.9
20260905103917 94 0 0.0 0.0 0.00 0.00 0.00 25 1014.7
20260905102917 96 0 0.0 0.0 0.00 0.00 0.00 24 1014.6
20260905101847 97 0 0.0 0.0 0.00 0.00 0.00 24 1014.2
20260905100843 97 0 0.0 0.0 0.00 0.00 0.00 24 1014.2
20260905095817 96 0 0.0 0.0 0.00 0.00 0.00 25 1013.9
20260905094811 96 0 0.0 0.0 0.00 0.00 0.00 25 1014.0
20260905093805 95 0 0.0 0.0 0.00 0.00 0.00 25 1014.0
20260905092747 95 0 0.0 0.0 0.00 0.00 0.00 25 1013.8
20260905091737 95 0 0.0 0.0 0.00 0.00 0.00 25 1013.7
20260905090709 94 0 0.0 0.0 0.00 0.00 0.00 25 1013.6
20260905085647 95 0 0.0 0.0 0.00 0.00 0.00 25 1013.7
20260905084637 93 0 0.0 0.0 0.00 0.00 0.00 26 1013.6
20260905083607 91 0 0.0 0.0 0.00 0.00 0.00 28 1013.4
20260905082547 90 0 0.0 0.0 0.00 0.00 0.00 29 1013.4
20260905081537 89 0 0.0 0.0 0.00 0.00 0.00 31 1013.2
20260905080535 88 0 0.0 0.0 0.00 0.00 0.00 32 1013.1
20260905075533 88 0 0.0 0.0 0.00 0.00 0.00 32 1013.1
20260905074517 86 0 0.0 0.0 0.00 0.00 0.00 33 1013.2
20260905073449 84 0 0.0 0.0 0.00 0.00 0.00 34 1013.2
20260905072437 83 0 0.0 0.0 0.00 0.00 0.00 35 1013.1
20260905071417 82 0 0.0 0.0 0.00 0.00 0.00 36 1013.0
20260905070347 82 0 0.0 0.0 0.00 0.00 0.00 36 1012.8
20260905065319 80 0 0.0 0.0 0.00 0.00 0.00 38 1012.8
20260905064303 79 0 0.0 0.0 0.00 0.00 0.00 40 1012.8
20260905063247 77 0 0.0 0.0 0.00 0.00 0.00 42 1012.8
20260905062247 76 0 0.0 0.0 0.00 0.00 0.00 44 1012.9
20260905061245 74 0 0.0 0.0 0.00 0.00 0.00 45 1012.8
20260905060237 73 0 0.0 0.0 0.00 0.00 0.00 46 1012.8
20260905055225 72 0 0.0 0.0 0.00 0.00 0.00 48 1012.8
20260905054217 71 0 0.0 0.0 0.00 0.00 0.00 49 1012.7
20260905053207 70 0 0.0 0.0 0.00 0.00 0.00 50 1012.7
20260905052207 69 0 0.0 0.0 0.00 0.00 0.00 52 1012.6
20260905051207 69 0 0.0 0.0 0.00 0.00 0.00 52 1012.5
20260905050201 68 0 0.0 0.0 0.00 0.00 0.00 53 1012.4
20260905045147 67 0 0.0 0.0 0.00 0.00 0.00 54 1012.4
20260905044137 67 0 0.0 0.0 0.00 0.00 0.00 54 1012.4
20260905043127 68 0 0.0 0.0 0.00 0.00 0.00 53 1012.3
20260905042107 67 0 0.0 0.0 0.00 0.00 0.00 53 1012.2
20260905041047 67 0 0.0 0.0 0.00 0.00 0.00 54 1012.1
20260905040043 68 0 0.0 0.0 0.00 0.00 0.00 53 1012.1
20260905035017 69 0 0.0 0.0 0.00 0.00 0.00 52 1012.0
20260905034007 69 0 0.0 0.0 0.00 0.00 0.00 51 1011.8
20260905032947 69 0 0.0 0.0 0.00 0.00 0.00 51 1011.7
20260905031917 69 0 0.0 0.0 0.00 0.00 0.00 51 1011.8
20260905030915 69 0 0.0 0.0 0.00 0.00 0.00 51 1011.9
20260905025853 69 0 0.0 0.0 0.00 0.00 0.00 51 1012.0
20260905024847 69 0 0.0 0.0 0.00 0.00 0.00 50 1012.1
20260905023817 69 0 0.0 0.0 0.00 0.00 0.00 50 1012.0
20260905022747 69 0 0.0 0.0 0.00 0.00 0.00 50 1012.1
20260905021737 69 0 0.0 0.0 0.00 0.00 0.00 50 1012.1
20260905020719 69 0 0.0 0.0 0.00 0.00 0.00 50 1012.1
20260905015717 70 0 0.0 0.0 0.00 0.00 0.00 50 1012.0
20260905014647 70 0 0.0 0.0 0.00 0.00 0.00 49 1012.0
20260905013637 70 0 0.0 0.0 0.00 0.00 0.00 50 1012.0
20260905012617 70 0 0.0 0.0 0.00 0.00 0.00 49 1012.1
20260905011547 70 0 0.0 0.0 0.00 0.00 0.00 48 1012.1
20260905010537 70 0 0.0 0.0 0.00 0.00 0.00 48 1012.1
20260905005515 71 0 0.0 0.0 0.00 0.00 0.00 47 1012.1
20260905004447 71 0 0.0 0.0 0.00 0.00 0.00 47 1012.1
20260905003437 71 0 0.0 0.0 0.00 0.00 0.00 46 1012.1